User: anonymous   Login
Location: Newark
(22.8000°N, 86.1800°E)
Time: 09:13:54
(UTC+00:00)
Language:

DX 1 - Orbit

View from above orbital plane
View from above orbital plane
View from above satellite
View from above satellite

Ground track
Ground track

The orbit data is extracted from the following two-line orbital elements,

1 40071U 14037C   20157.83143090  .00000103  00000-0  20709-4 0  9996
2 40071  98.4600 335.5913 0008615 166.3023 193.8425 14.81366093319535
Epoch (UTC): 05 June 2020 19:57:15
Eccentricity: 0.0008615
inclination: 98.4600°
perigee height: 619 km
apogee height: 631 km
right ascension of ascending node: 335.5913°
argument of perigee: 166.3023°
revolutions per day: 14.81366093
mean anomaly at epoch: 193.8425°
orbit number at epoch: 31953

The dashed part of the orbit path shows where the satellite is in the earth's shadow,  

DLR